Location: Unspecified
(0.0000°N, 0.0000°E)
Time: 02:15:03
(UTC+00:00)

Transit 4A - Pass Details

Date: 13 December 2018
Orbit: 868 x 977 km, 66.8° (Epoch: 16 January)

Event Time Altitude Azimuth Distance (km) Brightness Sun altitude
Rises 12:48:15 0° 18° (NNE) 3,601 10.7 63.4°
Reaches altitude 10° 12:52:39 10° 48° (NE) 2,683 10.2 62.8°
Maximum altitude 12:55:00 12° 70° (ENE) 2,535 10.1 62.5°
Drops below altitude 10° 12:57:22 10° 92° (E) 2,705 10.3 62.2°
Sets 13:01:49 0° 121° (ESE) 3,667 11.0 61.6°
